STARLINK-33825, 63505

Orbit data source: Space-Track

STARLINK-33825, 63505 is a payload satellite owned by SpaceX/Seattle (US) in LEO that was launched on Mon, 07 Apr 2025 UTC via an FALCON 9 launch vehicle from the Air Force Western Test Range (AFWTR). Payload-class satellites include a variety of spacecraft equipped with specific instruments for various scientific and technological missions. These include communications satellites like Starlink; space stations such as the ISS; scientific satellites like the Hubble; Earth observation satellites from companies like Planet Labs, Umbra, and HawkEye 360; GPS; miniature CubeSats for education and research; and military/defense satellites.

Loading next visibility...
Identifier
63505, 2025-071N
Orbit
LEO
Last TLE update
3 days ago
Origin
Manufacturer
SpaceX/Seattle
Mission
Operational Commercial Communications
Bus & Motor
STARLINK V2MO, Unknown motor
Mass
575 kg wet, ~530 kg dry
Launch date (UTC)
2025-04-07 (1 month ago)
Launch vehicle
FALCON 9
Launch site
Air Force Western Test Range (AFWTR)
Object type
Payload
Rocket body
Debris
Shape & HBR
Box + 1 Pan, 29 m
Radar Cross Section
41.120 m², Large (>1 m²)

Expand to show TLE details & history

TLE from 3 days ago
0 STARLINK-33825
1 63505U 25071N   25126.25684217  .00122853  00000-0  21805-2 0  9994
2 63505  53.1599 132.6674 0001266  90.4654 269.6500 15.49333665  5632
Epoch: 2025-05-06T06:09Z
Definitive object data (Epoch: 2025-05-06T06:09:51.163Z)
Latitude
-0.00003°
Longitude
175.84555°
Altitude
419.587 km
Speed
7.661 km/s
True Right ascension
08h 50m 40s
True Declination
0° 00' 00"
Sunlit
Object was in daylight at TLE epoch
Visualization TLE readout
Latitude
40.55819°
Longitude
-60.23451°
Altitude
419.139 km
Speed
7.665 km/s
Apparent Right ascension
15h 04m 18s
Apparent Declination
2° 10' 47"
Sunlit
Object is in full shadow
Visualization observer readout
Local Sidereal Time
00:54:39
Azimuth
316.809° NNW
Elevation
-38.51°
Doppler factor
1
Orbital elements
Apogee altitude
419.793 km
Perigee altitude
418.072 km
Semi-major axis
6,797.07 km
Eccentricity
0.0001266
Inclination
53.1599°
RAAN
132.6674°
Arg. of periapsis
90.4654°
True anomaly
269.63549°
Mean anomaly
269.65°
Eccentric anomaly
269.64275°
Mean motion
3.87312 °/min
BSTAR
0.0021805
Orbital period
92.95 mins
Loading maneuver chart data...
Loading SW <> Apogee altitude chart data...
Loading historical data...
Loading historical data...
Loading historical data...
Loading historical data...
Loading historical data...
Loading historical data...
Loading historical data...

STARLINK-33825 Visibility forecast

Observer location: undefined°, undefined°

Span
Click to sort rows by Start time (UTC) header in descending order
Start Az.
Max El. time (UTC)
Max El. Az.
Max El.
End time (UTC)
End Az.
5 mins2025-05-10 01:39:08.355Z212.788° SW2025-05-10 01:42:08.355Z103.874° ESE37.977°2025-05-10 01:44:08.355Z61.202° ENE
4 mins2025-05-10 08:10:08.355Z342.728° N2025-05-10 08:11:08.355Z19.446° NNE33.263°2025-05-10 08:14:08.355Z105.233° ESE
|